Location: The Saddle
(36.8333°N, 80.3417°W)
Time: 07:19:11
(UTC-04:00)

SEEDS - Visible Passes

Search period start: 22 June 2025 00:00
Search period end: 02 July 2025 00:00
Orbit: 505 x 513 km, 97.7° (Epoch: 21 June)

Date Brightness Start Highest point End Pass type
(mag) Time Alt. Az. Time Alt. Az. Time Alt. Az.
22 Jun ? 05:03:25 10° NE 05:06:06 19° E 05:08:46 10° SE visible
23 Jun ? 04:47:48 10° ENE 04:49:05 11° E 04:50:20 10° ESE visible
26 Jun ? 05:28:50 10° NNE 05:32:21 40° E 05:35:51 10° S visible
27 Jun ? 05:12:15 10° NE 05:15:19 24° E 05:18:22 10° SSE visible
28 Jun ? 04:56:05 10° ENE 04:58:14 15° E 05:00:22 10° SE visible
